Tracking 33747 objects as of 12-Apr-2026
HD Live streaming from Space Station
objects crossing your sky now

STARLINK-36807

Track STARLINK-36807 now!
10-day predictions
STARLINK-36807 is classified as:


NORAD ID: 67810
Int'l Code: 2026-032P
Perigee: 350.0 km
Apogee: 352.2 km
Inclination: 97.3 °
Period: 91.4 minutes
Semi major axis: 6722 km
RCS: Unknown
Launch date: February 15, 2026
Source: United States (US)
Launch site: AIR FORCE WESTERN TEST RANGE (AFWTR)
Your satellite tracking list
Your tracking list is empty




NASA's NSSDC Master Catalog

Two Line Element Set (TLE):
1 67810U 26032P   26101.50658830  .00042878  00000-0  28640-3 0  9992
2 67810  97.2843 289.6710 0001653  33.2793 326.8576 15.75229827  9950
Source of the keplerian elements: AFSPC